Flag for South Korea Weather past 2 weeks in Daegu, South Korea

Now
73 °F

Broken clouds.


Feels Like: 73 °F
Forecast: 66 / 82 °F
Wind: 3 mph from Northwest

Location: Taegu Ab

Current Time: Aug 28, 2015 at 9:44:37 AM

Latest Report: Aug 28, 2015 at 9:00 AM


Visibility: 6 mi

Pressure: 29.80 "Hg

Humidity: 83%

Dew point: 68 °F

Location of DaeguLocation

Historic Weather in Daegu — Graph

°F

Daegu temperature yesterday

Maximum temperature yesterday: 82 °F (at 1:00 PM)
Minimum temperature yesterday: 64 °F (at 3:00 AM)
Average temperature yesterday: 73 °F

Past Weeks' High & Low Weather Summary

 TemperatureHumidityPressure
High90 °F (Aug 14, 6:00 PM)94% (Aug 13, 11:00 PM)29.95 "Hg (Aug 13, 11:00 PM)
Low64 °F (Aug 27, 3:00 AM)40% (Aug 14, 4:00 PM)29.36 "Hg (Aug 25, 2:00 PM)
Average76 °F77%29.72 "Hg
* Reported Aug 13 8:00 AM — Aug 28 8:00 AM, Daegu, Weather by CustomWeather, © 2015

Note: Actual official high and low records may vary slightly from our data, if they occured in-between our weather recording intervals... More about our weather records

Advertising

Daegu weather history for previous 24 hours

 ConditionsComfort  
Time TempWeatherWind HumidityBarometerVisibility
8:00 AM
Fri, Aug 28
70 °FBroken clouds.2 mph88%29.80 "HgN/A
7:00 AM66 °FBroken clouds.1 mph94%29.77 "HgN/A
6:00 AM66 °FSunny.1 mph94%29.77 "Hg10 mi
5:00 AM66 °FPassing clouds.2 mph94%29.77 "HgN/A
4:00 AM68 °FClear.1 mph88%29.77 "Hg10 mi
3:00 AM68 °FClear.3 mph94%29.77 "Hg10 mi
2:00 AM68 °FClear.2 mph94%29.77 "Hg10 mi
1:00 AM70 °FClear.2 mph88%29.77 "Hg10 mi
12:00 AM68 °FClear.3 mph94%29.77 "Hg10 mi
11:00 PM
Thu, Aug 27
70 °FClear.2 mph88%29.77 "Hg10 mi
10:00 PM72 °FPassing clouds.2 mph88%29.77 "HgN/A
9:00 PM72 °FPassing clouds.1 mph83%29.77 "HgN/A
8:00 PM73 °FPassing clouds.1 mph78%29.74 "HgN/A
7:00 PM75 °FPassing clouds.3 mph78%29.71 "HgN/A
6:00 PM79 °FPartly sunny.7 mph65%29.68 "HgN/A
5:00 PM81 °FScattered clouds.6 mph62%29.68 "HgN/A
4:00 PM79 °FPartly sunny.8 mph70%29.68 "HgN/A
3:00 PM82 °FPartly sunny.7 mph55%29.68 "HgN/A
2:00 PM82 °FPartly sunny.7 mph55%29.71 "HgN/A
1:00 PM82 °FPartly sunny.9 mph55%29.71 "HgN/A
12:00 PM81 °FPartly sunny.8 mph58%29.74 "HgN/A
11:00 AM79 °FScattered clouds.7 mph61%29.74 "HgN/A
10:00 AM77 °FScattered clouds.6 mph69%29.74 "HgN/A
9:00 AM73 °FScattered clouds.3 mph74%29.74 "HgN/A
Weather by CustomWeather, © 2015

See weather overviewHow to use our weather pages